STARLINK-3920 (52575 NORAD) Tracking and Keplerian Element Data

This shows tracking and keplerian element data for the satellite.

Feedback or suggestion? Click here.




ElementValue
Catalog52575
NameSTARLINK-3920
Epoch Orbit1533
Epoch Day229.25002315
Epoch Year2022
RAAN197.0139
Inclination53.2148
Eccentricity0.0002625
Argument of Perigee49.1262
Mean Anonmoly255.9844
Mean Motion15.08834045
Decay Rate-0.00015626
L11 52575U 22051AR 22229.25002315 -.00015626 00000+0 -96590-3 0 9992
L22 52575 53.2148 197.0139 0002625 49.1262 255.9844 15.08834045 15335

Live tracking and technical data element details for STARLINK-3920 (NORAD 52575). STARLINK-3920 can be tracked NOW for your location showing map with azimuth and elevation plus other details from your city location.

Track the satellite on the map from your city or location and see movement details for azimuth, elevation, latitude, longitude, range, height, and movement on the map or in text.







IsCatalogInMostPopularTable: catalog: 52575, numindb: 7
Update: records affected: 1



GetName: 52575 STARLINK-3920

Hit Count: updated at: Thu, 18 Aug 2022 20:25:52 GMT